Meteo pe oră la Almolonga

Astăzi, 21 Ianuarie, Joi

Timp Temperatura Precipitaţii Vânt Presiune Umiditate
00:00 +11°C° 0 mm 3 m/s 583 mmHg 78%
01:00 +10°C° 0 mm 3 m/s 583 mmHg 78%
02:00 +10°C° 0 mm 3 m/s 582 mmHg 77%
03:00 +10°C° 0 mm 3 m/s 582 mmHg 77%
04:00 +10°C° 0 mm 3 m/s 582 mmHg 76%
05:00 +9°C° 0 mm 3 m/s 582 mmHg 74%
06:00 +9°C° 0 mm 3 m/s 582 mmHg 73%
07:00 +13°C° 0 mm 2 m/s 583 mmHg 65%
08:00 +15°C° 0 mm 2 m/s 585 mmHg 56%
09:00 +18°C° 0 mm 1 m/s 586 mmHg 48%
10:00 +19°C° 0 mm 2 m/s 586 mmHg 45%
11:00 +20°C° 0 mm 2 m/s 587 mmHg 43%
12:00 +23°C° 0 mm 2 m/s 587 mmHg 40%
13:00 +21°C° 0 mm 2 m/s 586 mmHg 42%
14:00 +21°C° 0 mm 2 m/s 585 mmHg 44%
15:00 +21°C° 0 mm 2 m/s 585 mmHg 47%
16:00 +18°C° 0 mm 2 m/s 584 mmHg 61%
17:00 +16°C° 0 mm 1 m/s 583 mmHg 75%
18:00 +14°C° 0 mm 1 m/s 582 mmHg 89%
19:00 +13°C° 0 mm 1 m/s 582 mmHg 86%
20:00 +13°C° 0 mm 2 m/s 582 mmHg 83%
21:00 +13°C° 0 mm 2 m/s 582 mmHg 80%
22:00 +12°C° 0 mm 2 m/s 582 mmHg 80%
23:00 +12°C° 0 mm 2 m/s 582 mmHg 79%

Mâine, 22 Ianuarie, Vineri

Timp Temperatura Precipitaţii Vânt Presiune Umiditate
00:00 +12°C° 0 mm 2 m/s 582 mmHg 79%
01:00 +12°C° 0 mm 2 m/s 582 mmHg 77%
02:00 +10°C° 0 mm 2 m/s 581 mmHg 74%
03:00 +10°C° 0 mm 2 m/s 581 mmHg 71%
04:00 +10°C° 0 mm 2 m/s 581 mmHg 67%
05:00 +10°C° 0 mm 2 m/s 581 mmHg 64%
06:00 +10°C° 0 mm 2 m/s 581 mmHg 60%
07:00 +13°C° 0 mm 1 m/s 583 mmHg 55%
08:00 +16°C° 0 mm 1 m/s 584 mmHg 50%
09:00 +18°C° 0 mm 0 m/s 586 mmHg 45%
10:00 +21°C° 0 mm 1 m/s 586 mmHg 43%
11:00 +21°C° 0 mm 2 m/s 586 mmHg 42%
12:00 +23°C° 0 mm 2 m/s 587 mmHg 41%
13:00 +21°C° 0 mm 2 m/s 586 mmHg 46%
14:00 +20°C° 0 mm 2 m/s 585 mmHg 52%
15:00 +19°C° 0 mm 3 m/s 584 mmHg 57%
16:00 +18°C° 0.1 mm 2 m/s 583 mmHg 66%
17:00 +16°C° 0.1 mm 1 m/s 582 mmHg 75%
18:00 +13°C° 0.1 mm 0 m/s 582 mmHg 83%
19:00 +13°C° 0 mm 1 m/s 582 mmHg 81%
20:00 +12°C° 0 mm 1 m/s 582 mmHg 79%
21:00 +12°C° 0 mm 1 m/s 582 mmHg 77%
22:00 +11°C° 0 mm 1 m/s 582 mmHg 77%
23:00 +11°C° 0 mm 1 m/s 582 mmHg 76%

Poimâine, 23 Ianuarie, Sâmbătă

Timp Temperatura Precipitaţii Vânt Presiune Umiditate
00:00 +11°C° 0 mm 1 m/s 582 mmHg 76%
01:00 +11°C° 0 mm 1 m/s 581 mmHg 75%
02:00 +11°C° 0 mm 1 m/s 581 mmHg 74%
03:00 +11°C° 0 mm 1 m/s 581 mmHg 73%
04:00 +11°C° 0 mm 1 m/s 581 mmHg 72%
05:00 +11°C° 0 mm 1 m/s 581 mmHg 70%
06:00 +10°C° 0 mm 1 m/s 581 mmHg 69%
07:00 +13°C° 0 mm 1 m/s 583 mmHg 63%
08:00 +15°C° 0 mm 1 m/s 584 mmHg 56%
09:00 +19°C° 0 mm 1 m/s 586 mmHg 50%
10:00 +20°C° 0 mm 1 m/s 586 mmHg 49%
11:00 +20°C° 0 mm 2 m/s 586 mmHg 47%
12:00 +21°C° 0 mm 2 m/s 586 mmHg 45%
13:00 +20°C° 0 mm 2 m/s 585 mmHg 50%
14:00 +20°C° 0 mm 2 m/s 584 mmHg 54%
15:00 +19°C° 0 mm 2 m/s 584 mmHg 58%
16:00 +17°C° 0 mm 2 m/s 583 mmHg 67%
17:00 +16°C° 0 mm 1 m/s 582 mmHg 75%
18:00 +14°C° 0 mm 1 m/s 581 mmHg 84%
19:00 +13°C° 0 mm 1 m/s 582 mmHg 85%
20:00 +12°C° 0 mm 1 m/s 582 mmHg 86%
21:00 +12°C° 0 mm 2 m/s 582 mmHg 87%
22:00 +12°C° 0 mm 1 m/s 582 mmHg 87%
23:00 +12°C° 0 mm 1 m/s 582 mmHg 87%

24 Ianuarie, Duminică

Timp Temperatura Precipitaţii Vânt Presiune Umiditate
00:00 +12°C° 0 mm 1 m/s 581 mmHg 87%
01:00 +12°C° 0 mm 2 m/s 581 mmHg 85%
02:00 +10°C° 0 mm 2 m/s 581 mmHg 82%
03:00 +10°C° 0 mm 2 m/s 581 mmHg 79%
04:00 +10°C° 0 mm 2 m/s 581 mmHg 72%
05:00 +10°C° 0 mm 2 m/s 581 mmHg 65%
06:00 +9°C° 0 mm 2 m/s 581 mmHg 59%
07:00 +13°C° 0 mm 1 m/s 582 mmHg 54%
08:00 +15°C° 0 mm 1 m/s 584 mmHg 50%
09:00 +19°C° 0 mm 1 m/s 585 mmHg 46%
10:00 +20°C° 0 mm 1 m/s 585 mmHg 45%
11:00 +20°C° 0 mm 2 m/s 586 mmHg 43%
12:00 +21°C° 0 mm 2 m/s 586 mmHg 42%
13:00 +21°C° 0 mm 2 m/s 585 mmHg 46%
14:00 +20°C° 0 mm 2 m/s 584 mmHg 51%
15:00 +20°C° 0 mm 2 m/s 583 mmHg 55%
16:00 +18°C° 0.1 mm 2 m/s 583 mmHg 65%
17:00 +16°C° 0.1 mm 1 m/s 582 mmHg 76%
18:00 +13°C° 0.1 mm 0 m/s 581 mmHg 86%
19:00 +13°C° 0 mm 1 m/s 581 mmHg 86%
20:00 +13°C° 0 mm 1 m/s 581 mmHg 85%
21:00 +12°C° 0 mm 1 m/s 581 mmHg 85%
22:00 +12°C° 0 mm 1 m/s 581 mmHg 83%
23:00 +11°C° 0 mm 1 m/s 581 mmHg 81%

25 Ianuarie, Luni

Timp Temperatura Precipitaţii Vânt Presiune Umiditate
00:00 +11°C° 0 mm 1 m/s 581 mmHg 79%
01:00 +11°C° 0 mm 1 m/s 580 mmHg 77%
02:00 +11°C° 0 mm 1 m/s 580 mmHg 76%
03:00 +11°C° 0 mm 1 m/s 580 mmHg 74%
04:00 +11°C° 0 mm 1 m/s 580 mmHg 76%
05:00 +11°C° 0 mm 1 m/s 580 mmHg 77%
06:00 +11°C° 0 mm 1 m/s 580 mmHg 78%
07:00 +13°C° 0 mm 1 m/s 582 mmHg 71%
08:00 +15°C° 0 mm 1 m/s 583 mmHg 65%
09:00 +19°C° 0 mm 1 m/s 585 mmHg 58%
10:00 +20°C° 0 mm 1 m/s 585 mmHg 54%
11:00 +20°C° 0 mm 2 m/s 585 mmHg 51%
12:00 +21°C° 0 mm 2 m/s 585 mmHg 48%
13:00 +20°C° 0.1 mm 2 m/s 584 mmHg 54%
14:00 +19°C° 0.1 mm 2 m/s 583 mmHg 60%
15:00 +18°C° 0.1 mm 2 m/s 582 mmHg 66%
16:00 +18°C° 0.1 mm 1 m/s 582 mmHg 74%
17:00 +16°C° 0.1 mm 1 m/s 581 mmHg 82%
18:00 +13°C° 0.1 mm 0 m/s 581 mmHg 90%
19:00 +14°C° 0 mm 1 m/s 581 mmHg 89%
20:00 +13°C° 0 mm 1 m/s 581 mmHg 89%
21:00 +13°C° 0 mm 1 m/s 581 mmHg 89%
22:00 +13°C° 0 mm 1 m/s 581 mmHg 88%
23:00 +12°C° 0 mm 1 m/s 581 mmHg 86%

26 Ianuarie, Marţi

Timp Temperatura Precipitaţii Vânt Presiune Umiditate
00:00 +12°C° 0 mm 1 m/s 581 mmHg 85%
01:00 +12°C° 0 mm 1 m/s 581 mmHg 85%
02:00 +12°C° 0 mm 1 m/s 581 mmHg 84%
03:00 +11°C° 0 mm 1 m/s 580 mmHg 83%
04:00 +11°C° 0 mm 1 m/s 580 mmHg 83%
05:00 +11°C° 0 mm 1 m/s 580 mmHg 83%
06:00 +11°C° 0 mm 1 m/s 580 mmHg 83%
07:00 +13°C° 0 mm 1 m/s 582 mmHg 75%
08:00 +15°C° 0 mm 1 m/s 583 mmHg 67%
09:00 +19°C° 0 mm 1 m/s 585 mmHg 59%
10:00 +20°C° 0 mm 1 m/s 585 mmHg 56%
11:00 +20°C° 0 mm 2 m/s 585 mmHg 52%
12:00 +23°C° 0 mm 2 m/s 585 mmHg 48%
13:00 +20°C° 0.1 mm 2 m/s 584 mmHg 55%
14:00 +19°C° 0.1 mm 2 m/s 583 mmHg 61%
15:00 +18°C° 0.1 mm 2 m/s 582 mmHg 68%
16:00 +17°C° 0.1 mm 2 m/s 582 mmHg 73%
17:00 +16°C° 0.1 mm 1 m/s 581 mmHg 79%
18:00 +14°C° 0.1 mm 1 m/s 581 mmHg 84%
19:00 +14°C° 0 mm 1 m/s 581 mmHg 84%
20:00 +13°C° 0 mm 1 m/s 581 mmHg 84%
21:00 +12°C° 0 mm 1 m/s 581 mmHg 84%
22:00 +12°C° 0 mm 1 m/s 581 mmHg 85%
23:00 +12°C° 0 mm 1 m/s 581 mmHg 85%
Arată mai mult

Formular de consimțământ

Meteoprog și furnizorii noștri de servicii pot stoca și accesa date personale, precum cookies, identificatori de dispozitiv sau alte tehnologii similare pe dispozitivul dumneavoastră și procesa astfel de date pentru a personaliza conținutul și reclamele, dar și pentru a oferi caracteristici de social media și pentru a analiza traficul.

  • Stocarea și/sau accesarea informațiilor pe dispozitivul dumneavoastră

    Cookies, identificatori de dispozitiv sau alte informații pot fi stocate sau accesate pe dispozitiv în scopurile indicate mai sus.

  • Reclame și conținut personalizat, evaluarea reclamelor și a conținutului, informații despre audiențe și dezvoltarea produselor

    Reclamele și conținutul pot fi personalizate pe baza unui profil. Pot fi adăugate date suplimentare pentru a personaliza mai bine reclamele și conținutul. Performanța reclamelor și conținutului poate fi măsurată. Pot fi obținute informații despre utilizatorii care au văzut reclamele și conținutul. Aceste date pot fi utilizate pentru a dezvolta sau îmbunătăți experiența utilizatorilor, sistemele și software-ul.

Dând clic pe ‘Sunt de acord’, permiteți utilizarea cookie-urilor menționate, a identificatorilor de dispozitiv, balizelor web sau altor tehnologii similare. Setările pot fi modificate din browser-ul dispozitivului dumneavoastră.

În anumite scopuri, interesele legitime pot prima asupra consimțământului. Puteți citi mai multe informații în acest sens în Politica privind Confidențialitatea Datelor și Cookie.